Somerville, NJ

6:46 PM EDT on May 24, 2017 (GMT -0400)
Somerset

Weather History for KSMQ - June, 2015

Change the Weather History Date:

Thursday, June 25, 2015

  Actual Average Record
Temperature  
Mean Temperature 67 °F -  
Max Temperature 81 °F 82 °F 98 °F (1949)
Min Temperature 54 °F 57 °F 46 °F (1979)
Cooling Degree Days 2    
Growing Degree Days 17 (Base 50)    
Moisture  
Dew Point 58 °F    
Average Humidity 73    
Maximum Humidity 93    
Minimum Humidity 40    
Precipitation  
Precipitation 0.00 in - - ()
Sea Level Pressure  
Sea Level Pressure 30.02 in    
Wind  
Wind Speed 1 mph (NW)    
Max Wind Speed 4 mph    
Max Gust Speed -    
Visibility 9 miles    
Events      
Averages and records for this station are not official NWS values.
T = Trace of Precipitation, MM = Missing Value Source: NWS Daily Summary

Daily Weather History Graph

Daily Weather History Graph

Search for Another Location

Airport or City:

Trip Planner

Search our weather history database for the weather conditions in past years. The results will help you decide how hot, cold, wet, or windy it might be!

Date:

Astronomy

Jun. 25, 2015 Rise Set
Actual Time 5:28 AM EDT 8:33 PM EDT
Civil Twilight 4:55 AM EDT 9:06 PM EDT
Nautical Twilight 4:13 AM EDT 9:49 PM EDT
Astronomical Twilight 3:22 AM EDT 10:39 PM EDT
Moon 2:14 PM EDT (6/25) 1:15 AM EDT (6/25)
Length of Visible Light 16h 11m
Length of Day
15h 04m
First Quarter, 61% of the Moon is Illuminated
Jun 25
First Quarter
Jul 1
Full
Jul 8
Last Quarter
Jul 15
New
Jul 24
First Quarter

Hourly Weather History & Observations

Time (EDT) Temp. Heat Index Dew Point Humidity Pressure Visibility Wind Dir Wind Speed Gust Speed Precip Events Conditions
12:53 AM 60.1 °F - 57.0 °F 90% 30.05 in 10.0 mi Calm Calm - N/A   Clear
1:53 AM 60.1 °F - 57.0 °F 90% 30.04 in 10.0 mi NNW 3.5 mph - N/A   Clear
2:53 AM 57.9 °F - 55.0 °F 90% 30.04 in 9.0 mi NW 3.5 mph - N/A   Clear
3:53 AM 57.0 °F - 54.0 °F 89% 30.03 in 10.0 mi NW 3.5 mph - N/A   Clear
4:53 AM 55.9 °F - 53.1 °F 90% 30.04 in 10.0 mi Calm Calm - N/A   Clear
5:06 AM 54.0 °F - 52.0 °F 93% 30.04 in 1.5 mi Calm Calm - N/A   Partly Cloudy
5:16 AM 55.0 °F - 52.0 °F 89% 30.04 in 3.0 mi Calm Calm - N/A   Clear
5:53 AM 55.0 °F - 52.0 °F 89% 30.05 in 10.0 mi Calm Calm - N/A   Clear
6:53 AM 57.9 °F - 55.0 °F 90% 30.07 in 10.0 mi Calm Calm - N/A   Clear
7:53 AM 64.0 °F - 55.9 °F 75% 30.08 in 10.0 mi Calm Calm - N/A   Clear
8:53 AM 72.0 °F - 55.0 °F 55% 30.08 in 10.0 mi Variable 3.5 mph - N/A   Clear
9:53 AM 75.9 °F - 55.9 °F 50% 30.07 in 10.0 mi Calm Calm - N/A   Clear
10:53 AM 78.1 °F - 55.0 °F 45% 30.06 in 10.0 mi WNW 3.5 mph - N/A   Clear
11:53 AM 80.1 °F 80.1 °F 55.0 °F 42% 30.04 in 10.0 mi East 3.5 mph - N/A   Clear
12:53 PM 80.1 °F 80.0 °F 54.0 °F 40% 30.03 in 10.0 mi Calm Calm - N/A   Clear
1:53 PM 78.1 °F - 57.9 °F 50% 30.01 in 10.0 mi Calm Calm - N/A   Clear
2:53 PM 79.0 °F - 57.9 °F 48% 30.00 in 10.0 mi Calm Calm - N/A   Clear
3:53 PM 77.0 °F - 62.1 °F 60% 29.99 in 10.0 mi Calm Calm - N/A   Partly Cloudy
4:53 PM 73.9 °F - 64.0 °F 71% 29.98 in 10.0 mi Calm Calm - N/A   Mostly Cloudy
5:53 PM 75.9 °F - 66.0 °F 71% 29.97 in 10.0 mi Calm Calm - N/A   Mostly Cloudy
6:53 PM 73.0 °F - 63.0 °F 71% 29.96 in 10.0 mi North - - N/A   Overcast
7:53 PM 70.0 °F - 64.9 °F 84% 29.96 in 10.0 mi Calm Calm - N/A   Mostly Cloudy
8:53 PM 70.0 °F - 64.0 °F 81% 29.97 in 10.0 mi Calm Calm - 0.00 in   Scattered Clouds
9:53 PM 70.0 °F - 64.0 °F 81% 29.99 in 10.0 mi South 3.5 mph - N/A   Overcast
10:53 PM 68.0 °F - 62.1 °F 81% 29.98 in 10.0 mi Calm Calm - N/A   Overcast
11:53 PM 68.0 °F - 62.1 °F 81% 29.97 in 10.0 mi North 3.5 mph - N/A   Overcast